Overview Statistics Trail Chart Weather Telemetry Raw packets
 

This is the latest recevied weather packets stored in our database for station/object KC7WRB. If no packets are shown the sender has not sent any weather packets the latest 10 day(s).

<< 3 4 5 6 7 8 9 >>
Time Temp. Humidity Pressure Rain* Wind** Luminosity Snow
1788573975 20° C 30% 1012.6 hPa 0 mm - 15 W/m² -
1788573670 20° C 30% 1012.5 hPa 0 mm - 18 W/m² -
1788573369 20° C 30% 1012.5 hPa 0 mm - 21 W/m² -
1788573063 20.56° C 29% 1012.7 hPa 0 mm - 26 W/m² -
1788572757 20.56° C 29% 1012.5 hPa 0 mm - 29 W/m² -
1788572458 21.11° C 29% 1012.3 hPa 0 mm - 32 W/m² -
1788572149 21.11° C 29% 1012.3 hPa 0 mm - 34 W/m² -
1788571845 21.11° C 29% 1012.2 hPa 0 mm - 37 W/m² -
1788571544 21.67° C 29% 1011.9 hPa 0 mm - 39 W/m² -
1788571242 21.67° C 28% 1011.9 hPa 0 mm - 42 W/m² -
1788570937 21.67° C 28% 1011.9 hPa 0 mm - 44 W/m² -
1788570636 21.67° C 28% 1012 hPa 0 mm - 46 W/m² -
1788570327 22.22° C 27% 1011.9 hPa 0 mm - 53 W/m² -
1788570024 22.22° C 27% 1011.9 hPa 0 mm - 80 W/m² -
1788569719 22.78° C 27% 1011.9 hPa 0 mm - 94 W/m² -
1788569415 22.78° C 27% 1011.6 hPa 0 mm - 111 W/m² -
1788569114 22.78° C 27% 1011.6 hPa 0 mm - 126 W/m² -
1788568809 22.78° C 26% 1011.5 hPa 0 mm - 141 W/m² -
1788568506 22.78° C 26% 1011.2 hPa 0 mm - 155 W/m² -
1788568201 23.33° C 26% 1011.5 hPa 0 mm - 178 W/m² -
1788567896 22.78° C 26% 1011.5 hPa 0 mm - 198 W/m² -
1788567595 23.33° C 26% 1011.4 hPa 0 mm - 218 W/m² -
1788567285 23.33° C 26% 1011.1 hPa 0 mm - 248 W/m² -
1788566985 23.33° C 26% 1011.4 hPa 0 mm - 273 W/m² -
1788566681 23.89° C 25% 1011.1 hPa 0 mm - 302 W/m² -

* Rain latest hour (hover to see other rain measurements)
** Current wind speed in m/s (hover to see current wind gust speed)